Location: Chuathbaluk
(61.5726°N, 159.2454°W)
Time: 17:05:57
(UTC+00:00)

NOAA 15 - Pass Details

Date: 24 January 2021
Orbit: 798 x 812 km, 98.7° (Epoch: 05 March)

Event Time Altitude Azimuth Distance (km) Brightness Sun altitude
Rises 06:06:29 0° 195° (SSW) 3,306 7.9 -25.9°
Reaches altitude 10° 06:09:04 10° 206° (SSW) 2,382 7.2 -26.2°
Maximum altitude 06:13:43 31° 268° (W) 1,389 6.4 -26.8°
Drops below altitude 10° 06:18:25 10° 330° (NNW) 2,404 7.5 -27.3°
Sets 06:21:02 0° 340° (NNW) 3,342 8.2 -27.6°
